Weather History for Rotterdam Airport Zestienhoven, Netherlands

Change the Weather History Date:

Wednesday, July 10, 2013

  Actual Average Record
Temperature  
Mean Temperature 62 °F -  
Max Temperature 67 °F 69 °F - ()
Min Temperature 56 °F 54 °F - ()
Degree Days  
Heating Degree Days 4    
Growing Degree Days 12 (Base 50)    
Moisture  
Dew Point 54 °F    
Average Humidity 77    
Maximum Humidity 94    
Minimum Humidity 56    
Precipitation  
Precipitation 0.00 in - - ()
Sea Level Pressure  
Sea Level Pressure 30.23 in    
Wind  
Wind Speed 7 mph ()    
Max Wind Speed 16 mph    
Max Gust Speed -    
Visibility 7.4 miles    
Events      
T = Trace of Precipitation, MM = Missing Value Source: Averaged Metar Reports

Daily Weather History Graph

Daily Weather History Graph

Search for Another Location

Airport:

Trip Planner

Search our weather history database for the weather conditions in past years. The results will help you decide how hot, cold, wet, or windy it might be!

Date:

Astronomy

Jul. 10, 2013 Rise Set
Actual Time 5:34 AM CEST 9:59 PM CEST
Civil Twilight 4:48 AM CEST 10:46 PM CEST
Nautical Twilight 3:37 AM CEST 11:55 PM CEST
Astronomical Twilight 2:19 AM CEST 1:15 AM CEST
Moon 8:03 AM CEST (7/10) 10:34 PM CEST (7/10)
Length of Visible Light 17h 58m
Length of Day
16h 24m
Waxing Crescent, 4% of the Moon is Illuminated
Jul 10
Waxing Crescent
Jul 16
First Quarter
Jul 22
Full
Jul 29
Last Quarter
Aug 6
New

Hourly Weather History & Observations

Time (CEST) Temp. Dew Point Humidity Pressure Visibility Wind Dir Wind Speed Gust Speed Precip Events Conditions
12:25 AM 60.8 °F 55.4 °F 82% 30.24 in 6.2 mi North 4.6 mph - N/A   Unknown
12:55 AM 59.0 °F 55.4 °F 88% 30.24 in 6.2 mi North 4.6 mph - N/A   Unknown
1:25 AM 60.8 °F 57.2 °F 88% 30.24 in 6.2 mi NNE 5.8 mph - N/A   Unknown
1:55 AM 59.0 °F 57.2 °F 94% 30.24 in 6.2 mi NE 6.9 mph - N/A   Unknown
2:00 AM 59 °F 56 °F 88% 30.25 in 10 mi NNE 6.7 mph - -   Partly Cloudy
2:25 AM 59.0 °F 55.4 °F 88% 30.24 in 6.2 mi NNE 5.8 mph - N/A   Unknown
2:55 AM 59.0 °F 55.4 °F 88% 30.24 in 6.2 mi NNE 5.8 mph - N/A   Unknown
3:25 AM 59.0 °F 55.4 °F 88% 30.24 in 6.2 mi NNE 5.8 mph - N/A   Unknown
3:55 AM 59.0 °F 55.4 °F 88% 30.24 in 6.2 mi NNE 5.8 mph - N/A   Unknown
4:25 AM 59.0 °F 55.4 °F 88% 30.24 in 6.2 mi North 3.5 mph - N/A   Unknown
4:55 AM 57.2 °F 55.4 °F 94% 30.24 in 6.2 mi North 3.5 mph - N/A   Unknown
5:00 AM 57 °F 56 °F 93% 30.24 in 7 mi North 4.5 mph - -  
5:25 AM 57.2 °F 55.4 °F 94% 30.21 in 6.2 mi North 3.5 mph - N/A   Unknown
5:55 AM 57.2 °F 55.4 °F 94% 30.21 in 6.2 mi North 3.5 mph - N/A   Unknown
6:25 AM 57.2 °F 55.4 °F 94% 30.21 in 6.2 mi North 3.5 mph - N/A   Unknown
6:55 AM 59.0 °F 55.4 °F 88% 30.21 in 6.2 mi North 4.6 mph - N/A   Unknown
7:25 AM 60.8 °F 57.2 °F 88% 30.24 in 6.2 mi North 4.6 mph - N/A   Unknown
7:55 AM 60.8 °F 57.2 °F 88% 30.21 in 6.2 mi North 4.6 mph - N/A   Unknown
8:00 AM 62 °F 55 °F 73% 30.25 in 16 mi North 4.5 mph - -   Partly Cloudy
8:25 AM 62.6 °F 55.4 °F 77% 30.24 in 6.2 mi North 5.8 mph - N/A   Unknown
8:55 AM 64.4 °F 55.4 °F 73% 30.24 in 6.2 mi North 6.9 mph - N/A   Unknown
9:25 AM 64.4 °F 57.2 °F 77% 30.24 in 6.2 mi North 8.1 mph - N/A   Unknown
9:55 AM 64.4 °F 57.2 °F 77% 30.24 in 6.2 mi North 8.1 mph - N/A   Partly Cloudy
10:25 AM 64.4 °F 57.2 °F 77% 30.24 in 6.2 mi NNE 8.1 mph - N/A   Overcast
10:55 AM 64.4 °F 59.0 °F 83% 30.24 in 6.2 mi North 6.9 mph - N/A   Overcast
11:00 AM 64 °F 59 °F 78% 30.25 in 7 mi North 6.7 mph - -   Overcast
11:25 AM 64.4 °F 59.0 °F 83% 30.21 in 6.2 mi North 6.9 mph - N/A   Overcast
11:55 AM 64.4 °F 57.2 °F 77% 30.24 in 6.2 mi North 10.4 mph - N/A   Overcast
12:25 PM 64.4 °F 57.2 °F 77% 30.24 in 6.2 mi North 10.4 mph - N/A   Overcast
12:55 PM 64.4 °F 57.2 °F 77% 30.24 in 6.2 mi North 10.4 mph - N/A   Overcast
1:25 PM 62.6 °F 57.2 °F 82% 30.21 in 6.2 mi North 8.1 mph - N/A   Overcast
1:55 PM 62.6 °F 57.2 °F 82% 30.21 in 6.2 mi North 8.1 mph - N/A   Overcast
2:00 PM 64 °F 58 °F 73% 30.24 in 11 mi North 8.9 mph - -   Partly Cloudy
2:25 PM 66.2 °F 57.2 °F 73% 30.21 in 6.2 mi North 8.1 mph - N/A   Overcast
2:55 PM 66.2 °F 57.2 °F 73% 30.21 in 6.2 mi North 9.2 mph - N/A   Scattered Clouds
3:25 PM 66.2 °F 55.4 °F 68% 30.21 in 6.2 mi NNW 10.4 mph - N/A   Scattered Clouds
3:55 PM 66.2 °F 53.6 °F 64% 30.21 in 6.2 mi NNW 11.5 mph - N/A   Partly Cloudy
4:25 PM 66.2 °F 53.6 °F 64% 30.21 in 6.2 mi North 12.7 mph - N/A   Unknown
4:55 PM 64.4 °F 53.6 °F 68% 30.21 in 6.2 mi North 15.0 mph - N/A   Unknown
5:00 PM 60 °F 50 °F 62% 30.23 in 15 mi North 11.2 mph - -   Partly Cloudy
5:25 PM 64.4 °F 51.8 °F 64% 30.21 in 6.2 mi North 12.7 mph - N/A   Unknown
5:55 PM 64.4 °F 53.6 °F 68% 30.21 in 6.2 mi North 12.7 mph - N/A   Partly Cloudy
6:00 PM 64 °F 52 °F 56% 30.23 in 12 mi North 15.7 mph - -  
6:25 PM 62.6 °F 51.8 °F 68% 30.21 in 6.2 mi North 13.8 mph - N/A   Partly Cloudy
6:55 PM 62.6 °F 51.8 °F 68% 30.21 in 6.2 mi North 11.5 mph - N/A   Overcast
7:00 PM 60 °F 50 °F 62% 30.23 in 15 mi North 11.2 mph - -   Partly Cloudy
7:25 PM 60.8 °F 51.8 °F 72% 30.21 in 6.2 mi North 11.5 mph - N/A   Overcast
7:55 PM 60.8 °F 50.0 °F 68% 30.21 in 6.2 mi North 10.4 mph - N/A   Overcast
8:00 PM 60 °F 50 °F 62% 30.23 in 15 mi North 11.2 mph - -   Partly Cloudy
8:25 PM 59.0 °F 50.0 °F 72% 30.21 in 6.2 mi North 11.5 mph - N/A   Overcast
8:55 PM 59.0 °F 50.0 °F 72% 30.21 in 6.2 mi North 9.2 mph - N/A   Overcast
9:00 PM 59 °F 49 °F 62% 30.23 in 17 mi North 8.9 mph - -   Overcast
9:25 PM 59.0 °F 48.2 °F 67% 30.21 in 6.2 mi North 10.4 mph - N/A   Overcast
9:55 PM 59.0 °F 48.2 °F 67% 30.21 in 6.2 mi North 9.2 mph - N/A   Overcast
10:25 PM 59.0 °F 48.2 °F 67% 30.21 in 6.2 mi North 11.5 mph - N/A   Overcast
10:55 PM 57.2 °F 48.2 °F 72% 30.21 in 6.2 mi North 10.4 mph - N/A   Overcast
11:00 PM 58 °F 48 °F 59% 30.24 in 15 mi North 11.2 mph - -   Overcast
11:25 PM 59.0 °F 48.2 °F 67% 30.21 in 6.2 mi North 6.9 mph - N/A   Overcast
11:55 PM 57.2 °F 48.2 °F 72% 30.21 in 6.2 mi NNE 8.1 mph - N/A   Overcast